Overview Statistics Trail Chart Weather Telemetry Raw packets
 

This is the latest recevied weather packets stored in our database for station/object KD8DNS. If no packets are shown the sender has not sent any weather packets the latest 10 day(s).

<< 33 34 35 36 37 38 39 >>
Time Temp. Humidity Pressure Rain* Wind** Luminosity Snow
1788445343 32.78° C 64% 1020.1 hPa 0 mm - 385 W/m² -
1788445038 32.22° C 65% 1020.3 hPa 0 mm - 378 W/m² -
1788444733 31.67° C 65% 1020.1 hPa 0 mm - 359 W/m² -
1788444428 31.67° C 68% 1020 hPa 0 mm - 332 W/m² -
1788444123 31.11° C 68% 1020.1 hPa 0 mm - 374 W/m² -
1788443819 31.11° C 68% 1020.2 hPa 0 mm - 400 W/m² -
1788443514 30.56° C 69% 1020 hPa 0 mm - 377 W/m² -
1788443213 30.56° C 71% 1020.5 hPa 0 mm - 341 W/m² -
1788442909 30° C 74% 1020.3 hPa 0 mm - 309 W/m² -
1788442606 29.44° C 75% 1020.4 hPa 0 mm - 281 W/m² -
1788442302 29.44° C 75% 1020.3 hPa 0 mm - 262 W/m² -
1788441996 28.89° C 76% 1020.6 hPa 0 mm - 240 W/m² -
1788441691 28.33° C 77% 1020.4 hPa 0 mm - 208 W/m² -
1788441386 28.33° C 78% 1020.8 hPa 0 mm - 217 W/m² -
1788441085 27.78° C 79% 1020.5 hPa 0 mm - 222 W/m² -
1788440780 27.22° C 80% 1020.9 hPa 0 mm - 210 W/m² -
1788440474 27.22° C 81% 1020.8 hPa 0 mm - 192 W/m² -
1788440173 26.67° C 83% 1020.9 hPa 0 mm - 161 W/m² -
1788439863 26.11° C 83% 1021 hPa 0 mm - 160 W/m² -
1788439563 25.56° C 85% 1020.6 hPa 0 mm - 149 W/m² -
1788439262 25° C 86% 1020.9 hPa 0 mm - 126 W/m² -
1788438962 25° C 87% 1020.6 hPa 0 mm - 119 W/m² -
1788438660 24.44° C 88% 1020.6 hPa 0 mm - 109 W/m² -
1788438355 23.89° C 90% 1020.9 hPa 0 mm - 97 W/m² -
1788438055 23.89° C 91% 1020.4 hPa 0 mm - 40 W/m² -

* Rain latest hour (hover to see other rain measurements)
** Current wind speed in m/s (hover to see current wind gust speed)